ボアッティーニ彗星

P/2010 U1 ( Boattini )

English version
Home page
Updated on January 7, 2012

---------------------------------------------------------------------

・ プロフィール

発見日 2010年10月17日
発見光度 19.3等
発見者 A. Boattini (Mt. Lemmon)

・ 写真集

・ 軌道要素

Epoch 2010 Mar. 25.0 TT = JDT 2455280.5
T 2010 Mar. 28.02700 TT                                 MPC
q   4.9030249            (2000.0)            P               Q
n   0.05738923     Peri.   88.83864     +0.97363465     -0.17971022
a   6.6565486      Node   281.50229     +0.10578200     +0.90138520
e   0.2634284      Incl.    8.24336     +0.20210330     +0.39396569
P  17.2
From 104 observations 2010 Oct. 1-2011 Dec. 28, mean residual 0".5.

・ 光度変化

        m1 = 9.0 + 5 logΔ + 10.0 log r

---------------------------------------------------------------------

軌道要素はM.P.E.C. 2011-Y66に掲載されたものです。
光度グラフはComet for Windowsで作成したものです。

---------------------------------------------------------------------

Copyright(C) Seiichi Yoshida (comet@aerith.net). All rights reserved.